Home   Weather   McKinney   Past weeks
Flag for USA

Past Weather in McKinney, Texas, USA — Yesterday and Last 2 Weeks

Now
60 °F

Clear.


Feels Like: 60 °F
Forecast: 69 / 46 °F
Wind: No wind

Location: McKinney Municipal Airport

Current Time: Mar 31, 2020 at 9:53:59 pm

Latest Report: Mar 31, 2020 at 8:53 pm


Visibility: 10 mi

Pressure: 30.04 "Hg

Humidity: 62%

Dew Point: 47 °F

Location of McKinneyLocation

Past Weather in McKinney — Graph

°F

McKinney Temperature Yesterday

Maximum temperature yesterday: 64 °F (at 11:53 am)
Minimum temperature yesterday: 53 °F (at 11:53 pm)
Average temperature yesterday: 57 °F

High & Low Weather Summary for the Past Weeks

 TemperatureHumidityPressure
High85 °F (Mar 25, 3:53 pm)100% (Mar 17, 5:15 am)30.48 "Hg (Mar 17, 5:15 am)
Low39 °F (Mar 21, 5:53 am)19% (Mar 28, 3:53 pm)29.65 "Hg (Mar 27, 4:53 pm)
Average63 °F79%30.00 "Hg
* Reported Mar 16 7:53 pm — Mar 31 7:53 pm, McKinney. Weather by CustomWeather, © 2020

Note: Actual official high and low records may vary slightly from our data, if they occured in-between our weather recording intervals... More about our weather records

McKinney Weather History for the Previous 24 Hours

Scroll right to see more
 ConditionsComfort  
Time TempWeatherWind HumidityBarometerVisibility
7:53 pm
Tue, Mar 31
61 °FClear.3 mph62%30.03 "Hg10 mi
6:53 pm65 °FPartly sunny.5 mph54%30.03 "Hg10 mi
5:53 pm63 °FScattered clouds.5 mph60%30.03 "Hg10 mi
4:53 pm65 °FPartly sunny.8 mph54%30.03 "Hg10 mi
3:53 pm64 °FPartly sunny.8 mph56%30.04 "Hg10 mi
2:53 pm65 °FPartly sunny.9 mph54%30.07 "Hg10 mi
1:53 pm63 °FPartly sunny.10 mph63%30.08 "Hg10 mi
12:53 pm61 °FMostly cloudy.13 mph65%30.10 "Hg10 mi
11:53 am59 °FPartly sunny.13 mph69%30.11 "Hg10 mi
10:53 am57 °FCloudy.13 mph74%30.11 "Hg10 mi
10:12 am57 °FBroken clouds.14 mph74%30.08 "Hg10 mi
9:53 am57 °FBroken clouds.14 mph78%30.09 "Hg10 mi
8:53 am54 °FMore clouds than sun.12 mph86%30.07 "Hg10 mi
8:11 am54 °FPartly sunny.9 mph86%30.04 "Hg10 mi
7:53 am54 °FBroken clouds.12 mph86%30.04 "Hg10 mi
6:53 am54 °FOvercast.15 mph83%30.03 "Hg10 mi
6:00 am53 °FMostly cloudy.10 mph89%29.99 "Hg10 mi
5:09 am53 °FLow clouds.14 mph89%29.98 "Hg10 mi
4:53 am53 °FMostly cloudy.13 mph89%29.99 "Hg9 mi
4:27 am53 °FMostly cloudy.12 mph89%29.95 "Hg9 mi
3:53 am53 °FLow clouds.12 mph93%29.96 "Hg10 mi
3:43 am53 °FLow clouds.13 mph93%29.94 "Hg10 mi
3:11 am53 °FLow clouds.9 mph93%29.91 "Hg10 mi
2:25 am53 °FLow clouds.7 mph93%29.92 "Hg10 mi
1:53 am54 °FLow clouds.8 mph90%29.96 "Hg10 mi
12:53 am54 °FLow clouds.No wind90%29.96 "Hg10 mi
11:53 pm
Mon, Mar 30
53 °FLow clouds.7 mph93%29.92 "Hg10 mi
10:53 pm54 °FLow clouds.10 mph93%29.98 "Hg10 mi
9:53 pm54 °FLow clouds.8 mph93%29.93 "Hg10 mi
Weather by CustomWeather, © 2020

See weather overview

Advertising